STARLINK-30104, 56300

Orbit data source: Space-Track

STARLINK-30104, 56300 is a payload satellite owned by SpaceX/Seattle (US) in LEO that was launched on Wed, 19 Apr 2023 UTC via an FALCON 9 launch vehicle from the Air Force Eastern Test Range (AFETR). Payload-class satellites include a variety of spacecraft equipped with specific instruments for various scientific and technological missions. These include communications satellites like Starlink; space stations such as the ISS; scientific satellites like the Hubble; Earth observation satellites from companies like Planet Labs, Umbra, and HawkEye 360; GPS; miniature CubeSats for education and research; and military/defense satellites.

Loading next visibility...
Identifier
56300, 2023-056Q
Orbit
LEO
Country
Flag of USUS
Related business
Manufacturer
SpaceX/Seattle
Mission
Operational Commercial Communications
Bus & Motor
STARLINK V2M, Unknown motor
Mass
730 kg wet, ~700 kg dry
Launch date (UTC)
2023-04-19 (3 years ago)
Launch vehicle
FALCON 9
Launch site
Air Force Eastern Test Range (AFETR)
Object type
Payload
Rocket body
Debris
Shape & HBR
Box + 2 Pan, 17.7 m
Radar Cross Section
33.884 m², Large (>1 m²)

Expand to show TLE details & history
Last TLE update: 1 day ago

TLE from 1 day ago
0 STARLINK-30104
1 56300U 23056Q   25348.63277916  .00001072  00000-0  94418-4 0  9993
2 56300  43.0056 312.0770 0001089 268.3500  91.7218 15.02542612147295
Epoch: 2025-12-14T15:11Z
TLE epoch observation values (Epoch: 2025-12-14T15:11:12.119Z)
Latitude
0.00001°
Longitude
0.73361°
Altitude
558.86 km
Speed
7.584 km/s
True Right ascension
20h 48m 18s
True Declination
0° 00' 00"
Sunlit
Object was in daylight at epoch
Visualization orbit readout
Latitude
Unknown
Longitude
Unknown
Altitude
Unknown
Speed
Unknown
Apparent Right ascension
Unknown
Apparent Declination
Unknown
Sunlit
N/A
Visualization observer readout
Local Sidereal Time
13:23:45
Azimuth
Unknown
Elevation
Unknown
Doppler factor
Unknown
Orbital elements
Apogee altitude
561.738 km
Perigee altitude
560.227 km
Semi-major axis
6,939.119 km
Eccentricity
0.00011
Inclination
43.0056°
RAAN
312.077°
Arg. of periapsis
268.35°
True anomaly
91.73427°
Mean anomaly
91.7218°
Eccentric anomaly
91.72804°
Mean motion
3.7548 °/min
Orbital period
95.88 mins
BSTAR
0.000094418
Loading maneuver chart data...
Computing Atmospheric mass density...
Loading historical data...
Loading historical data...
Loading historical data...
Loading historical data...
Loading historical data...
Loading historical data...
Loading historical data...

Documentation

Showing up to 5 results
|